Theta_e
297 297 296 296 296 296 296 296 295 295 295 295 295 295 295 295 295 296 296 296 296 296 296 296 296 296 296 296 296 296 296 295 295 295 295 295 295 295 295 295 295 294 294 294 294 294 294 294 293 293 293 292 292 292 292 293 293 293 294 294 294 295 295 295 296 296 296 296 296 297 297 297 297 297 297 297 297 297 296 297 297 297 297 297 297 297
297 296 296 296 296 296 296 295 295 295 295 295 294 294 295 295 295 295 295 295 295 295 295 295 295 295 296 295 295 295 295 295 295 294 295 295 295 294 294 294 294 294 294 294 294 293 293 293 293 292 292 292 292 292 292 292 293 293 293 293 293 294 294 294 294 295 295 295 295 296 296 296 296 296 296 296 296 296 296 296 296 296 296 296 297 297
297 296 295 295 295 295 295 294 294 294 294 294 294 294 294 294 294 294 295 295 295 295 295 295 295 295 295 294 295 295 295 294 294 294 294 294 294 294 294 294 293 293 293 293 293 293 292 292 292 292 292 292 292 292 292 292 292 292 292 292 293 293 293 293 294 294 294 294 295 295 295 295 295 295 295 295 295 295 295 295 295 295 295 296 296 296
297 296 295 295 295 294 294 294 293 293 294 294 294 294 294 294 294 294 294 294 294 294 294 294 294 294 294 294 294 294 293 293 293 293 293 293 293 293 293 293 293 293 293 293 292 292 292 292 292 291 291 291 291 291 291 291 291 291 291 292 292 292 293 293 293 293 294 294 294 294 294 294 294 294 294 294 294 295 295 295 295 295 295 295 295 295
297 296 295 295 294 294 293 293 293 293 293 294 293 294 294 293 293 293 294 294 294 294 293 293 293 293 293 293 293 293 292 292 292 292 292 292 292 292 292 292 292 292 292 292 292 291 291 291 291 291 291 290 290 290 290 290 290 290 290 291 291 291 292 292 292 293 293 293 293 293 294 294 294 294 294 294 294 294 294 294 294 294 294 294 294 294
296 295 295 294 294 293 293 293 293 293 293 293 294 293 293 293 293 293 293 293 293 293 293 293 293 293 293 292 292 291 291 291 291 291 290 291 291 291 291 291 291 291 291 291 291 291 291 290 290 290 290 290 290 290 290 289 289 289 289 289 290 290 290 291 291 292 292 292 293 293 293 293 293 293 293 293 293 293 293 293 293 293 293 293 293 294
295 294 294 294 293 293 293 293 293 293 294 294 294 294 293 293 293 293 293 293 293 293 293 293 293 292 292 291 290 290 290 290 290 290 289 289 289 290 290 290 291 291 290 290 290 290 290 290 290 290 290 289 289 289 289 289 288 288 288 288 288 288 289 289 290 291 291 292 292 292 292 292 292 292 292 292 293 293 293 293 293 293 293 293 293 293
295 295 295 295 294 293 293 293 293 293 293 294 294 294 294 294 293 293 293 292 292 292 292 292 292 291 291 290 289 289 289 289 290 290 289 289 289 289 289 289 289 290 290 290 290 289 289 289 289 289 289 289 288 288 288 288 287 287 287 287 286 286 287 287 288 289 290 291 291 291 292 292 292 292 292 292 292 292 292 292 292 292 292 292 292 293
296 295 295 295 295 294 294 293 293 293 293 293 294 294 294 294 294 293 293 292 291 290 290 290 291 291 290 290 289 289 289 288 289 289 289 289 289 289 289 288 288 288 288 288 288 288 288 288 288 288 288 288 287 287 287 287 287 286 286 286 285 285 285 285 286 287 289 290 290 291 291 292 292 292 292 292 292 292 292 292 292 291 291 291 292 292
296 296 295 295 295 295 294 294 293 292 292 293 293 293 292 292 293 293 293 292 291 290 290 289 289 289 289 289 288 288 288 288 288 288 288 288 288 288 288 288 288 288 287 287 287 287 287 287 287 287 287 287 287 287 287 286 286 286 286 285 285 284 284 284 285 286 287 288 289 290 290 291 291 292 292 292 292 292 291 291 291 291 291 291 291 291
295 295 295 294 294 294 294 293 293 292 292 292 292 291 290 290 291 291 292 292 291 290 289 289 289 289 288 288 288 288 288 288 288 288 288 288 288 288 287 287 287 287 287 287 287 287 287 286 286 286 286 286 286 286 286 286 286 285 285 285 285 284 284 284 284 285 286 287 288 289 289 290 290 291 291 291 291 291 291 291 291 290 290 290 291 291
294 294 294 294 293 293 293 292 292 291 291 292 292 291 290 289 289 290 290 291 290 289 289 289 288 288 288 288 288 287 287 287 287 287 287 287 287 287 287 287 287 286 286 286 287 287 286 287 287 287 286 286 286 286 286 285 285 284 284 284 284 283 283 283 284 284 285 286 287 287 288 289 289 290 290 290 290 290 290 290 290 290 290 290 290 291
293 293 293 293 293 292 292 292 291 291 291 291 291 291 289 289 289 289 289 290 289 289 288 288 288 288 288 288 288 287 287 287 287 287 287 287 287 287 287 287 286 286 286 286 286 286 286 287 287 287 286 286 286 285 285 285 284 284 284 284 284 284 284 284 284 285 285 286 286 287 288 288 288 289 289 289 289 289 289 289 290 290 290 290 291 291
293 293 293 292 292 291 291 291 291 290 290 290 289 289 289 288 288 289 289 289 289 289 288 288 288 289 289 288 288 287 287 287 287 287 287 287 287 287 287 287 286 286 286 286 286 286 286 286 286 286 286 285 285 285 285 285 285 284 284 284 284 284 285 285 285 286 286 287 287 288 288 288 288 288 288 289 289 289 289 289 289 290 290 290 291 291
292 292 292 292 291 290 290 290 290 290 289 289 288 288 288 288 288 288 289 289 289 288 288 288 288 288 289 288 288 287 287 286 286 286 286 286 286 287 287 287 286 286 286 285 285 285 285 285 285 285 285 285 285 285 285 285 284 284 284 284 284 285 286 286 287 287 287 288 288 288 288 289 289 289 289 289 289 289 289 289 289 290 290 291 291 291
291 291 292 291 291 290 290 289 289 289 288 288 288 288 288 288 288 288 288 288 288 288 288 287 288 288 288 288 288 287 287 286 286 286 285 285 285 285 286 286 286 286 285 285 284 284 284 284 285 285 285 285 285 285 285 284 284 283 284 284 285 286 287 287 287 287 287 288 288 288 289 289 289 289 289 289 289 289 290 290 290 290 290 291 291 291
290 291 291 291 290 290 289 289 289 289 288 288 288 288 287 287 287 287 287 287 287 287 287 287 287 287 287 288 287 287 286 286 285 285 285 285 285 285 285 286 286 285 285 284 284 284 284 284 285 285 285 285 285 285 284 283 283 283 283 284 285 286 286 286 287 287 287 287 288 288 288 288 289 289 289 289 290 290 290 290 290 290 290 291 291 291
290 290 290 290 290 289 289 288 288 288 288 288 287 287 287 287 287 286 286 286 286 286 286 287 287 287 287 287 287 286 286 285 285 284 284 284 284 285 285 285 285 285 284 284 284 284 284 285 285 285 285 284 284 284 283 283 283 283 283 284 284 285 286 286 286 287 287 287 287 288 288 288 288 289 289 289 289 290 290 290 290 291 291 291 291 291
289 289 289 290 289 289 288 288 288 288 287 287 287 287 287 287 287 286 286 286 286 286 286 286 286 286 286 286 286 286 286 285 285 284 284 284 284 285 285 285 285 285 284 284 284 284 284 284 284 284 284 284 284 284 284 284 284 284 284 284 284 284 285 285 285 286 286 287 287 287 288 288 288 288 288 289 289 289 290 290 291 291 291 291 291 291
289 289 288 289 288 288 288 288 288 287 287 287 287 287 287 287 287 287 286 286 286 286 285 285 285 286 286 286 286 286 286 285 285 284 284 284 284 284 285 285 285 284 284 284 284 284 284 284 284 284 284 284 284 284 284 284 284 284 284 284 284 284 284 285 285 285 285 286 286 286 287 287 287 288 288 288 289 289 289 290 290 290 291 291 291 291
289 288 288 288 288 288 288 288 288 287 287 287 287 287 287 287 287 286 286 286 286 286 286 285 286 286 286 286 286 286 285 285 285 284 284 284 284 284 284 285 284 284 284 284 284 284 284 284 284 284 284 284 284 284 284 284 284 284 284 284 284 284 284 285 285 285 285 285 285 286 286 287 287 287 288 288 288 289 289 289 289 290 290 290 290 290
288 288 288 288 288 288 288 288 287 287 286 286 286 286 286 286 286 286 286 286 286 286 285 286 286 285 285 285 285 285 284 284 284 284 284 284 284 284 284 285 284 284 284 284 284 284 284 284 284 284 284 284 284 284 284 284 284 284 283 283 284 284 285 285 285 286 286 286 287 287 287 287 287 287 288 288 288 288 289 289 289 289 290 290 290 290
288 288 287 287 287 287 287 287 287 287 286 285 285 286 285 285 285 285 285 285 285 285 285 285 285 285 285 285 284 284 284 285 284 284 284 284 284 284 284 284 284 284 284 284 284 284 284 284 284 284 284 284 284 284 284 284 284 284 283 284 284 285 285 286 286 287 287 287 287 288 288 288 288 288 288 288 288 288 288 289 289 289 289 290 290 290
287 287 287 287 287 287 287 287 286 286 286 285 285 285 285 284 284 285 285 285 285 285 285 285 285 285 285 285 285 285 285 285 285 284 284 284 284 284 284 284 284 284 284 284 284 284 284 284 284 284 284 284 284 284 284 284 284 283 283 284 285 285 285 286 286 286 286 287 287 287 288 288 288 288 288 288 288 289 289 289 289 289 289 290 290 290
286 286 286 286 286 286 286 286 286 286 285 285 285 284 284 285 285 285 285 285 285 285 285 285 285 285 285 285 285 285 285 285 285 284 284 283 283 283 283 284 284 284 284 284 284 283 283 283 283 284 284 284 284 284 284 284 283 283 283 284 284 284 285 285 285 285 285 286 286 286 287 287 288 288 288 288 288 289 289 289 289 289 289 290 290 290
286 286 286 286 285 285 285 285 285 285 285 285 285 285 285 285 285 285 285 285 285 285 285 285 285 285 285 285 285 285 285 285 285 284 284 283 283 283 283 284 284 284 284 283 283 283 283 283 284 284 284 284 284 284 284 284 284 283 283 283 283 284 284 284 284 284 284 285 285 285 286 286 287 287 288 288 288 288 288 289 289 289 289 289 289 289
285 285 285 285 285 285 284 285 285 285 285 285 285 285 285 285 285 284 284 285 285 285 285 285 285 285 284 284 284 284 285 285 284 284 284 283 283 283 283 283 284 284 283 283 283 283 283 284 284 284 284 284 284 284 283 283 284 284 283 283 283 283 283 283 283 283 283 284 284 284 285 285 286 286 287 287 287 288 288 288 288 288 288 288 288 288
285 285 285 285 285 284 284 284 284 284 285 285 285 285 285 284 284 284 284 284 285 285 285 285 285 284 284 284 284 284 284 284 284 284 284 283 283 283 283 283 284 284 283 283 283 283 283 284 284 284 284 284 284 284 283 283 283 284 284 284 284 284 284 283 283 283 283 283 283 283 284 284 285 285 286 286 287 287 287 288 288 288 288 288 288 288
285 285 284 284 284 284 284 284 284 284 284 284 284 284 284 284 284 283 284 284 284 284 284 284 284 284 284 283 283 283 284 284 284 284 284 283 283 283 283 284 284 284 283 283 283 283 284 284 285 285 285 284 284 284 284 284 284 284 284 284 284 284 284 284 284 283 283 283 283 283 283 284 284 285 285 286 286 287 287 287 287 287 287 287 287 287
285 285 285 285 284 284 284 284 284 284 284 284 284 284 283 283 283 283 283 283 283 284 284 284 284 283 283 283 283 284 284 284 284 284 284 283 283 283 283 284 284 283 283 283 283 283 284 285 285 285 285 284 284 284 284 284 284 284 284 284 284 284 284 284 283 283 283 283 283 283 283 283 283 284 284 285 285 286 286 287 287 287 287 287 287 287
285 285 285 285 285 284 284 284 284 283 283 283 283 283 283 282 282 282 282 282 283 283 283 283 283 283 283 283 283 284 284 284 284 284 284 283 283 283 283 283 283 283 283 283 283 283 284 284 285 285 284 284 284 284 284 284 284 284 284 283 283 283 283 283 283 283 283 283 283 283 283 283 283 283 283 284 284 285 285 286 286 286 286 286 286 286
285 285 285 284 284 284 284 283 283 283 283 282 282 282 282 281 281 281 281 281 282 282 282 282 282 283 283 283 283 284 284 284 284 284 283 283 283 283 283 283 283 283 283 282 282 283 283 284 284 284 284 284 284 284 284 284 284 284 283 283 283 283 283 283 283 283 283 283 283 283 283 283 283 283 283 283 284 284 284 285 285 286 286 286 286 286
284 284 284 284 283 283 283 283 283 282 282 282 281 281 281 280 280 280 280 280 281 281 281 282 282 282 283 283 283 284 284 284 284 284 283 283 282 282 283 283 282 282 282 282 282 282 283 283 283 283 283 283 283 283 283 283 283 283 283 283 283 283 283 283 283 282 282 283 283 283 283 283 283 283 283 283 283 284 284 284 285 285 285 285 285 285
283 283 283 283 283 283 283 283 282 282 282 281 281 281 281 280 280 280 280 280 280 280 281 281 282 282 283 283 283 283 284 284 284 283 283 283 282 282 282 282 282 282 282 282 282 283 283 283 283 283 283 283 283 283 283 283 283 283 283 283 283 283 283 282 282 282 282 282 282 283 283 283 283 283 283 283 283 284 284 284 284 284 285 285 285 285
283 282 282 282 282 282 282 282 282 282 282 281 281 281 281 281 281 280 280 280 280 280 280 281 281 282 282 283 283 283 284 284 283 283 283 282 282 282 282 282 282 282 282 282 282 283 283 283 283 283 283 283 283 283 283 283 283 283 283 283 283 283 282 282 282 282 282 282 282 282 282 283 283 283 283 284 284 284 284 284 284 284 284 285 285 285
282 282 282 282 282 282 282 282 282 282 281 281 281 281 281 281 281 281 281 281 281 280 280 281 281 282 282 282 282 283 283 283 283 282 282 282 281 281 281 282 282 282 282 282 282 282 282 282 282 282 282 282 282 283 283 283 283 283 283 283 283 282 282 282 282 282 282 282 282 282 283 283 283 283 283 283 284 284 284 284 284 284 284 284 284 285
282 282 281 281 282 282 282 282 281 281 281 281 281 281 281 281 281 281 281 281 281 281 281 281 281 281 281 281 282 282 282 282 282 282 281 281 281 281 281 281 281 281 282 282 282 282 282 282 282 282 282 282 282 283 283 283 283 283 282 282 282 282 282 282 282 282 282 282 282 282 283 283 283 283 283 283 284 284 284 284 284 284 284 284 284 285
281 281 281 281 282 281 281 281 281 281 281 281 281 281 281 281 281 281 281 281 281 281 280 280 281 281 281 281 281 281 281 281 281 281 281 281 281 280 280 280 281 281 281 281 281 281 281 281 281 281 282 282 282 282 282 282 282 282 282 282 282 281 282 282 282 282 282 282 282 283 283 283 283 283 283 283 283 283 283 283 283 283 284 284 284 284
281 281 281 282 281 281 281 281 281 281 281 281 281 281 280 280 280 280 280 280 280 280 280 280 280 280 280 280 280 280 280 280 280 280 280 280 280 280 280 280 280 280 280 281 281 281 281 281 281 281 281 281 281 281 281 281 281 281 281 281 281 281 281 282 282 282 282 282 282 282 282 283 283 283 283 283 283 283 283 283 283 283 283 284 284 284
282 282 282 282 281 281 281 281 281 281 280 280 280 280 280 280 280 280 280 280 280 280 280 280 279 279 279 279 279 279 279 279 279 279 279 279 279 279 279 279 279 279 280 280 280 281 281 281 281 281 281 281 281 281 281 281 281 281 281 281 281 281 282 282 282 282 282 282 282 282 282 282 283 283 283 283 283 283 283 283 283 283 283 283 284 284
282 281 281 281 281 281 281 281 281 280 280 280 280 280 280 280 279 279 279 279 280 280 280 280 279 279 279 279 279 279 279 279 279 279 279 279 279 279 279 279 279 279 279 280 280 280 280 280 280 280 280 280 280 280 281 281 281 281 281 281 281 281 281 281 281 282 282 282 282 282 282 283 283 283 283 283 283 283 283 283 283 283 283 283 283 283
282 281 281 281 281 281 281 280 280 280 280 280 280 279 279 280 280 280 280 280 280 280 280 280 280 280 280 279 279 279 279 280 280 280 280 280 280 280 280 279 279 279 279 280 280 280 280 280 280 280 280 280 280 280 280 280 281 281 281 281 281 281 281 281 281 282 282 282 282 282 283 283 283 283 283 283 283 283 283 283 283 283 283 283 283 283
281 281 281 281 281 281 280 280 280 279 279 279 279 279 279 280 280 280 280 280 280 280 280 280 280 280 280 280 280 280 280 280 280 280 280 280 280 280 280 280 279 279 279 279 280 280 280 280 280 280 280 280 280 280 280 280 280 281 281 281 281 281 281 281 282 282 282 282 282 282 282 282 283 283 283 283 283 283 283 283 283 283 283 283 283 283
281 281 281 281 280 280 279 279 279 279 279 279 279 279 280 280 280 280 280 280 280 280 280 280 280 280 279 279 280 280 280 280 281 281 280 280 280 280 280 280 280 279 279 279 279 280 280 280 280 280 280 280 280 280 280 280 280 281 281 281 281 281 281 281 281 281 281 282 282 282 282 282 282 282 282 283 283 283 283 283 283 283 283 283 283 283
281 281 280 280 280 279 279 279 279 279 279 279 279 280 280 280 280 280 280 280 280 280 280 280 280 279 279 279 280 280 280 281 281 281 281 280 280 280 280 280 280 279 279 279 279 279 280 280 280 280 280 280 280 280 280 280 280 281 281 281 281 281 281 281 282 282 282 282 282 282 282 282 282 282 282 283 283 283 283 283 283 283 283 283 283 283
281 281 280 280 279 279 279 279 279 279 279 279 279 279 280 280 280 280 280 280 280 280 280 279 279 279 279 280 280 280 280 281 281 281 281 281 280 280 280 280 280 280 279 279 279 279 280 280 280 280 280 280 280 280 280 280 281 281 281 281 281 281 281 282 282 282 282 282 282 282 282 282 282 282 283 283 283 283 283 283 283 283 283 283 283 283
281 280 280 280 279 279 279 279 279 279 279 279 279 279 280 280 280 280 280 280 280 280 279 279 279 279 279 279 280 280 280 281 281 281 281 281 281 281 281 280 280 280 280 280 280 280 280 280 280 280 280 280 280 280 280 281 281 281 281 281 281 282 282 282 282 282 282 282 282 282 282 282 282 282 282 282 282 282 282 282 283 283 283 283 283 284
281 281 280 280 279 279 279 279 279 279 279 279 279 280 280 280 280 280 280 280 280 279 279 279 279 279 279 279 280 280 280 281 281 281 281 281 281 281 281 281 281 280 280 280 280 280 280 280 280 280 280 280 280 280 281 281 281 281 281 281 282 282 282 282 282 282 282 282 282 282 282 282 282 282 282 282 282 282 282 282 282 283 283 283 283 284
281 281 280 280 280 279 279 279 279 279 279 279 279 280 280 280 280 280 280 280 279 279 279 279 279 279 279 279 280 280 280 281 281 281 281 281 281 281 281 281 281 281 281 281 281 281 281 281 281 280 280 280 280 281 281 281 281 281 281 281 281 282 282 282 282 282 282 282 282 282 282 282 282 282 282 282 282 282 282 282 282 282 283 283 283 283
281 281 280 280 279 279 279 279 279 279 279 279 279 279 279 279 279 279 279 279 279 279 279 279 279 279 279 280 280 280 280 281 281 281 281 280 281 281 281 281 281 281 281 281 281 281 281 281 281 281 281 281 281 281 281 281 281 281 281 281 281 282 282 282 282 282 282 282 283 283 282 283 283 282 282 282 283 283 282 282 282 282 283 283 283 283
281 281 280 280 279 279 279 279 279 279 279 279 279 279 279 279 279 279 279 279 279 279 279 279 279 279 279 280 280 280 280 281 281 280 280 280 280 281 281 281 281 281 281 281 281 281 281 281 281 281 281 282 281 281 281 281 281 281 281 282 282 282 282 282 283 283 283 283 283 283 283 283 283 283 283 283 283 283 283 283 283 283 283 283 283 283
Wind_Speed
2 2 1 0 1 1 0 0 0 1 1 1 2 2 3 3 2 2 2 2 2 2 2 3 3 3 4 7 8 9 8 8 8 8 8 7 7 6 5 5 6 6 5 5 5 4 3 3 3 3 3 4 4 4 4 4 4 4 5 5 5 6 6 6 7 7 7 7 7 7 7 8 8 8 7 8 8 7 7 6 6 6 6 5 5 5
1 1 0 1 1 1 1 0 0 1 1 1 1 1 2 2 1 1 1 1 1 1 2 2 2 1 2 6 8 9 8 8 8 7 7 6 6 5 5 4 4 4 4 3 3 2 2 2 2 2 3 3 3 4 4 4 5 5 5 5 6 6 6 7 7 7 7 8 7 7 7 7 7 6 6 5 5 4 4 4 4 4 5 5 5 5
2 2 1 1 2 2 1 1 1 1 1 0 0 1 1 1 1 1 1 0 0 1 1 2 2 2 2 4 6 8 7 7 6 6 6 5 4 3 3 3 3 3 2 2 2 1 1 1 1 1 2 2 3 3 4 4 5 5 5 6 6 6 6 6 7 7 7 7 7 6 6 6 5 5 5 4 4 4 4 4 5 5 5 6 6 6
3 3 2 2 2 2 1 1 0 0 0 1 1 1 1 1 1 1 1 1 1 1 1 1 1 1 1 2 4 6 6 6 5 5 5 3 2 1 1 2 2 1 1 1 1 1 1 1 1 1 2 3 3 4 4 4 5 5 5 6 6 6 6 6 6 6 7 7 7 6 6 6 6 6 5 5 5 5 6 6 6 6 7 7 7 7
3 2 2 2 2 2 2 1 1 2 2 2 2 2 2 1 2 3 3 2 2 2 2 2 2 2 2 1 4 6 6 6 5 5 4 3 1 1 1 0 0 0 0 0 1 1 1 2 2 2 3 3 4 4 5 5 5 6 6 6 6 6 6 6 6 6 6 7 7 7 7 7 7 6 6 6 6 6 7 7 7 7 8 8 8 9
2 2 3 2 2 1 1 2 2 2 1 2 2 2 2 2 3 4 5 5 5 4 4 3 3 2 1 2 4 6 6 6 5 5 5 3 2 1 1 1 1 0 1 1 2 2 2 3 3 3 4 4 5 6 6 7 7 7 7 7 7 7 7 7 7 7 7 7 7 7 7 7 7 7 7 7 7 7 7 7 8 8 8 9 9 9
3 3 3 2 2 1 1 2 2 2 1 0 1 0 1 2 3 3 3 3 3 3 2 2 2 1 1 2 4 5 5 6 6 6 6 5 4 3 2 2 2 2 2 2 3 3 4 4 5 5 6 6 7 8 8 9 9 9 9 9 9 9 9 9 9 8 8 8 8 8 8 8 8 8 8 8 8 8 8 8 8 9 9 9 10 10
3 3 3 3 2 1 1 2 2 2 1 0 0 0 0 0 1 1 1 2 2 2 1 1 1 1 1 2 3 3 3 3 4 4 4 4 4 4 3 3 3 4 4 4 5 5 6 7 7 8 8 9 10 10 11 11 12 12 12 12 12 12 11 11 10 10 10 9 9 9 9 9 9 9 9 9 9 9 9 9 9 9 10 10 10 10
4 4 3 3 2 2 1 1 1 1 2 1 0 0 0 0 1 1 2 1 1 1 1 1 1 1 1 1 2 2 1 1 1 1 1 0 1 2 3 3 4 4 6 7 8 8 9 10 10 11 11 12 12 13 13 14 14 15 15 15 14 14 13 12 12 11 11 10 10 10 10 10 9 9 9 9 9 10 10 10 10 10 10 10 10 10
3 3 3 2 2 2 2 1 1 1 1 1 1 1 1 1 0 1 2 2 1 1 1 1 0 0 1 1 2 2 3 3 3 3 4 4 4 5 6 6 6 7 9 10 11 11 12 12 13 13 14 14 15 15 15 16 16 16 16 16 15 15 14 13 13 12 12 11 11 11 11 11 11 11 10 10 10 10 11 11 11 11 11 11 10 10
3 3 2 2 2 2 1 2 1 1 1 1 1 1 1 1 1 1 1 1 1 1 1 1 1 2 3 3 3 3 4 4 4 5 6 7 7 8 9 9 10 10 11 12 12 13 13 14 14 14 14 15 15 15 15 16 16 17 17 16 16 15 15 14 13 13 12 12 12 12 12 12 12 12 12 12 12 11 11 11 11 11 11 11 10 10
2 2 2 2 2 2 1 1 1 0 0 1 1 1 1 1 1 1 3 2 1 1 2 2 3 5 5 5 6 6 6 4 4 4 5 6 7 8 8 8 8 9 10 10 10 11 11 12 12 12 13 13 14 15 15 16 16 16 16 16 15 14 14 13 13 12 12 12 12 12 13 13 13 13 13 13 13 12 12 12 12 11 11 11 10 10
3 2 2 2 2 2 2 1 1 1 1 0 1 1 2 2 1 2 3 3 3 3 3 4 5 6 7 7 7 7 6 5 4 4 5 5 6 6 6 6 6 7 7 8 8 9 9 9 10 10 11 12 13 13 13 14 14 14 14 13 13 12 11 11 10 10 10 10 10 11 11 12 12 13 13 13 13 13 13 12 12 11 11 11 10 10
3 3 2 2 2 2 1 1 1 1 1 1 2 2 2 2 2 2 3 3 3 3 4 5 6 6 6 7 7 6 5 4 4 4 5 5 5 6 6 7 7 7 7 8 8 9 9 9 9 10 10 10 10 10 10 10 11 11 11 11 10 9 8 8 8 8 8 8 9 9 10 10 11 11 12 12 12 12 12 12 11 11 11 10 10 10
3 3 3 3 2 2 1 1 1 1 2 2 2 2 2 2 2 2 3 3 4 4 5 5 6 6 5 6 6 5 4 3 3 4 5 6 6 6 7 7 8 7 7 8 8 9 9 9 9 10 9 8 8 8 10 11 11 11 10 9 8 7 7 7 7 7 7 7 8 8 8 9 9 10 10 10 11 11 11 11 11 11 10 10 10 10
2 2 2 2 3 2 2 1 1 1 2 1 1 1 2 2 2 3 3 4 5 5 5 5 6 5 4 4 4 4 4 3 3 4 6 7 7 7 7 7 7 7 8 8 9 9 9 9 8 8 7 7 8 10 12 12 12 11 9 7 7 7 7 7 7 7 7 7 8 8 8 8 8 9 9 9 10 10 10 10 10 10 10 10 10 10
2 1 2 2 2 2 2 1 1 1 1 1 0 1 1 2 2 3 3 4 4 5 4 4 4 4 3 2 2 4 5 5 5 5 6 8 8 7 7 7 8 8 9 9 9 9 8 7 7 7 7 7 9 11 13 13 13 11 9 8 7 7 7 8 8 8 8 8 8 8 8 8 8 9 9 9 9 9 10 10 10 10 10 10 10 10
1 1 1 1 2 2 2 2 1 1 0 0 0 0 1 1 2 2 3 3 3 4 4 4 4 4 4 3 3 4 7 6 6 6 7 8 8 7 6 7 8 8 8 9 9 8 7 7 7 8 8 10 12 13 13 12 12 10 9 9 9 9 8 8 8 8 8 8 9 9 9 9 9 9 9 9 9 10 10 10 10 10 10 11 10 10
1 1 1 1 1 1 2 1 1 1 1 0 0 1 1 1 1 2 2 2 2 3 3 4 4 5 5 6 5 5 7 8 7 7 7 8 8 7 6 6 7 7 8 8 8 8 7 7 8 9 10 11 11 11 11 11 10 10 10 10 10 10 10 10 10 10 10 10 10 10 10 10 10 10 10 10 10 10 10 10 10 10 11 11 11 11
2 1 1 0 0 1 1 1 1 1 1 0 0 1 1 2 2 2 2 2 2 3 3 4 5 5 6 7 7 7 7 8 8 7 7 7 8 8 6 6 6 7 8 9 9 8 7 8 8 9 9 10 10 10 10 10 10 11 11 11 11 11 11 11 11 11 11 11 10 10 10 10 10 11 11 11 10 10 11 11 11 11 11 11 11 11
1 1 1 1 1 0 1 1 2 2 2 1 1 1 1 1 2 2 2 3 3 4 4 5 6 6 6 7 8 9 9 8 7 7 7 7 8 7 6 6 6 7 8 9 8 8 7 7 8 9 9 10 10 10 11 11 11 11 11 11 11 11 10 10 10 10 10 10 10 10 10 11 11 11 11 11 11 11 11 11 11 11 11 11 12 12
1 1 1 1 1 0 1 2 2 2 2 1 1 1 1 1 2 3 3 4 4 5 5 6 7 7 8 10 11 11 11 9 7 6 6 7 7 7 6 5 6 7 7 8 8 7 7 8 9 10 10 10 10 10 11 12 12 12 11 10 9 9 8 8 7 8 8 8 9 9 10 10 10 11 11 11 12 12 12 12 12 12 12 12 12 13
1 1 1 1 1 1 1 2 2 1 1 1 1 0 1 1 2 3 4 5 6 6 7 8 9 10 11 12 13 12 10 9 7 6 5 5 7 7 5 5 6 7 7 8 8 8 8 9 10 10 10 9 9 10 12 12 12 11 9 8 7 6 6 6 6 6 7 7 7 8 8 9 9 10 10 11 11 12 12 12 12 13 13 13 13 13
1 1 1 1 2 3 2 2 2 1 1 1 1 2 3 3 4 4 5 6 7 8 9 9 10 11 11 11 11 10 8 8 7 6 4 5 6 7 7 6 7 7 8 8 8 9 10 11 11 10 9 8 9 11 12 12 12 10 7 6 6 6 6 6 6 6 6 6 6 7 7 7 8 8 9 10 10 11 11 12 12 12 13 13 13 14
1 1 1 1 3 4 3 3 3 3 3 2 2 3 4 4 4 5 6 7 8 8 8 9 9 9 9 8 8 7 6 8 8 6 5 5 7 8 7 7 7 8 8 9 10 11 11 12 11 9 8 7 9 11 11 11 10 8 6 6 6 7 7 8 8 8 8 8 8 7 7 7 8 8 8 9 9 10 10 11 11 12 12 12 13 13
3 3 3 3 4 5 5 5 5 5 4 3 3 3 4 4 5 6 7 7 7 8 8 8 8 8 8 8 7 6 5 6 7 7 6 5 6 7 7 7 7 7 8 9 11 12 12 12 11 9 7 6 8 9 11 11 10 9 7 6 6 7 8 8 9 9 10 10 10 10 10 10 10 9 9 9 9 9 10 10 10 11 11 12 12 13
6 5 6 6 6 6 6 6 6 5 5 4 4 4 5 5 6 7 8 7 7 7 7 7 7 7 7 7 7 6 5 6 6 6 6 5 5 6 7 7 7 7 9 10 11 12 12 12 11 9 7 6 7 8 10 11 11 10 9 8 8 8 9 9 10 11 11 11 12 12 12 12 12 11 11 11 10 10 10 10 11 11 11 12 13 13
6 6 6 7 7 7 8 8 8 7 7 7 7 7 7 8 8 8 8 8 8 7 8 8 7 7 6 6 7 7 7 7 6 6 5 5 5 6 7 7 7 7 8 10 11 12 11 11 9 7 6 6 7 9 10 11 11 11 10 10 9 9 10 11 11 12 12 12 12 12 13 13 13 13 13 13 12 12 12 11 11 12 12 12 13 14
5 6 7 7 8 9 9 10 10 10 10 10 10 10 11 10 10 10 10 9 8 8 9 8 8 7 7 8 8 8 8 8 7 6 6 4 5 6 7 6 6 7 8 9 11 11 9 8 6 6 6 6 8 9 10 10 10 10 9 9 9 10 10 11 12 12 13 13 13 12 13 13 13 14 14 14 14 14 13 13 12 12 13 13 14 15
5 5 6 7 8 8 9 10 10 10 10 11 11 12 13 13 12 12 11 10 9 9 9 9 9 8 8 8 7 7 7 6 7 7 7 4 4 5 6 6 6 6 7 8 8 7 7 5 4 4 5 6 8 9 9 9 9 9 9 9 9 10 10 10 11 12 13 13 13 12 13 13 13 14 14 15 15 15 15 14 14 14 14 15 15 15
4 4 5 5 6 7 7 8 9 10 11 11 12 13 13 14 13 13 12 11 11 10 10 10 9 9 8 7 4 3 4 3 5 7 7 5 5 5 6 6 6 6 6 5 5 4 4 4 3 3 4 6 8 9 9 9 9 9 10 10 10 10 10 10 11 12 13 13 13 12 12 13 13 14 15 15 15 16 16 15 15 15 15 15 16 16
5 5 5 6 7 7 8 9 10 11 11 12 12 12 12 13 13 13 12 12 12 11 11 10 10 9 9 8 6 5 4 4 5 7 6 5 5 5 5 5 5 6 5 4 4 4 2 4 5 6 7 8 9 9 10 10 10 10 10 10 10 10 10 10 11 12 12 12 12 12 12 12 13 14 15 15 16 16 16 16 16 16 16 16 17 17
6 6 7 8 9 9 10 10 11 11 11 11 11 11 11 11 11 12 13 13 13 13 12 11 10 9 9 9 10 9 8 6 6 6 6 5 4 4 5 5 5 6 6 6 6 6 6 7 9 11 11 10 10 10 10 10 10 10 10 10 10 11 11 11 12 12 12 11 11 11 11 12 13 13 14 14 15 15 16 16 16 17 17 17 18 18
7 8 9 9 10 10 10 10 10 10 10 10 10 10 10 10 10 11 12 13 13 13 13 11 10 10 9 9 9 9 9 7 6 6 6 4 4 4 4 5 5 6 6 6 7 8 9 10 11 11 11 11 11 10 10 10 10 9 9 10 11 12 12 13 13 12 12 11 11 11 11 11 11 11 12 12 13 14 14 15 15 16 17 18 18 18
8 9 9 9 9 9 9 9 9 9 9 9 9 9 9 9 9 10 10 11 12 13 13 12 11 11 10 9 9 8 8 6 5 5 5 4 4 4 5 5 5 6 6 7 7 7 8 9 10 11 11 12 12 11 10 9 8 8 8 9 10 11 12 12 12 11 12 12 11 11 11 10 10 10 10 10 11 11 12 13 14 14 15 16 17 18
8 8 9 9 9 9 8 8 8 8 8 8 8 8 8 8 8 9 9 10 10 11 11 12 12 12 12 11 10 9 9 7 6 5 5 5 5 5 5 6 6 6 6 7 8 8 8 10 11 11 11 11 11 11 9 8 7 7 8 9 10 11 11 11 12 12 12 12 12 11 10 10 9 9 9 9 9 10 11 12 13 13 14 15 16 17
8 8 8 8 8 8 8 7 7 7 7 7 7 7 8 8 8 8 8 9 10 10 11 11 12 12 13 13 13 13 12 12 10 8 7 7 7 7 7 7 7 7 7 8 9 9 9 10 11 11 11 10 9 9 9 9 9 9 10 10 11 11 12 12 12 12 12 12 11 11 11 10 10 10 10 10 10 10 11 12 12 13 14 14 15 16
8 8 8 8 7 7 7 7 7 7 7 7 7 7 7 8 8 8 8 9 10 11 12 12 13 13 13 14 15 15 16 16 16 15 13 12 12 11 10 10 10 9 9 9 9 9 10 10 9 9 9 10 10 10 10 11 11 11 12 12 12 12 12 12 12 11 11 11 11 11 11 11 11 11 11 11 11 11 11 12 12 12 12 13 14 15
8 8 8 7 7 7 6 6 6 6 6 7 7 8 9 9 9 10 10 10 11 12 13 14 14 14 15 16 17 17 18 19 19 19 18 18 17 17 15 14 13 12 11 10 10 10 10 10 9 9 9 10 11 11 11 11 11 12 13 13 13 12 11 10 10 10 10 11 11 12 11 11 11 11 11 11 11 11 11 11 11 11 10 11 12 13
8 8 7 7 7 6 6 6 7 7 8 8 9 9 10 10 11 11 11 11 11 12 14 14 15 15 16 17 18 18 19 19 19 19 18 18 18 18 18 17 15 13 12 11 10 10 11 11 11 11 11 11 11 12 12 11 11 12 12 12 12 11 10 10 10 11 12 12 12 12 12 11 11 11 11 11 11 11 11 11 11 10 10 10 11 12
8 8 8 7 7 6 6 7 8 8 9 9 9 10 10 10 10 10 10 10 10 11 12 12 13 14 14 15 16 17 17 17 16 16 15 15 15 15 16 17 16 14 11 11 11 11 11 11 11 12 12 12 12 12 12 12 12 12 11 11 12 12 13 12 12 12 12 12 11 11 11 11 11 11 11 11 11 12 12 12 11 11 11 11 11 12
8 8 7 7 6 6 6 7 8 8 9 9 9 9 9 9 9 9 8 9 9 9 10 10 10 11 11 12 13 14 15 15 14 14 14 13 13 13 14 14 14 13 11 11 11 11 11 11 11 12 11 11 11 12 13 13 12 12 11 12 13 13 13 12 11 10 10 10 10 10 10 11 11 11 12 12 12 12 12 12 12 12 12 13 13 14
8 8 7 7 7 7 7 8 9 9 9 9 9 10 9 9 9 9 8 8 8 8 8 8 9 9 10 11 12 12 13 13 13 13 13 13 13 12 12 12 12 12 12 11 11 11 11 11 11 12 12 11 11 12 13 13 13 12 12 12 12 12 11 11 10 10 9 10 10 11 11 12 12 12 12 13 13 12 12 12 13 13 14 14 15 15
9 9 8 9 9 10 10 10 10 10 9 9 9 9 9 9 9 9 9 9 9 8 8 8 8 9 10 10 11 11 11 11 11 11 12 12 12 11 11 11 11 11 12 12 11 10 10 11 11 12 11 11 11 12 13 13 13 13 12 12 12 12 12 12 12 12 12 12 12 12 12 12 13 13 13 13 13 13 13 13 13 14 14 14 15 15
10 10 10 10 10 10 10 10 9 9 9 9 9 9 9 9 9 9 10 9 9 9 8 8 8 8 9 9 9 9 9 8 8 9 10 11 11 11 10 10 10 11 12 12 12 11 11 10 11 11 11 11 12 13 13 13 14 14 13 13 12 13 14 14 14 13 13 13 13 13 12 12 12 13 14 14 13 13 13 13 14 14 14 14 15 15
10 10 10 10 10 10 9 9 9 9 9 9 9 10 9 9 9 10 10 10 9 9 9 8 8 8 8 8 8 8 7 7 7 7 8 9 10 10 11 11 11 11 11 12 13 13 13 12 12 11 11 11 12 13 14 14 14 14 14 13 13 13 13 13 13 13 13 13 12 12 12 11 11 12 13 13 14 14 14 14 14 14 14 15 15 15
10 10 10 10 9 9 9 9 9 9 9 9 9 9 9 9 9 9 10 10 10 9 9 9 9 9 9 9 8 8 7 7 7 7 7 8 9 10 11 11 11 11 11 12 13 14 14 15 14 14 13 12 13 14 14 14 13 13 14 13 13 13 13 13 13 13 13 13 13 12 12 11 12 12 13 13 14 15 15 15 14 14 14 14 15 15
11 11 10 10 9 9 9 9 9 9 9 9 9 9 9 9 9 9 10 10 10 9 9 9 9 10 10 10 9 9 9 8 8 8 7 7 8 9 10 11 11 11 12 12 13 14 15 16 16 16 16 15 15 14 15 14 14 13 13 13 13 13 13 13 13 13 12 13 13 13 12 12 12 12 13 14 15 15 15 15 15 14 14 14 15 16
12 11 11 10 10 10 10 9 9 9 9 9 9 9 9 9 9 9 10 10 10 9 9 9 9 10 10 10 10 10 9 9 9 9 8 8 8 8 9 9 10 10 11 12 13 13 15 16 17 18 18 18 18 17 16 15 14 14 13 13 12 13 13 13 13 13 12 12 12 13 13 13 13 13 13 14 15 16 16 16 16 15 15 15 15 16
12 12 12 11 11 10 10 10 9 9 9 9 9 9 9 9 9 10 10 10 10 10 10 10 10 10 10 10 10 10 10 10 10 9 9 8 8 8 8 9 9 9 9 10 10 11 12 14 15 17 18 20 20 20 19 17 15 14 13 13 13 13 13 14 14 13 12 12 12 12 13 13 14 14 14 14 15 16 17 17 17 16 15 15 15 16
12 12 12 11 11 11 11 10 10 10 10 9 9 9 9 9 9 10 10 10 10 11 11 11 11 10 11 10 10 10 10 10 10 9 9 8 8 8 9 9 8 8 8 8 8 8 8 9 10 12 15 17 19 20 21 19 17 14 13 13 13 13 13 13 13 13 12 12 12 12 13 13 13 14 14 14 15 16 17 17 17 17 16 15 15 15
Wind_Direction
261 277 301 60 89 93 89 39 41 46 37 32 31 25 16 16 16 13 12 25 38 34 11 352 353 353 338 316 306 302 302 304 306 306 307 307 307 306 306 306 306 308 313 316 317 319 330 350 11 19 22 22 20 19 16 14 8 2 355 348 343 337 332 328 326 324 322 323 323 320 315 308 301 296 293 292 292 293 296 295 293 290 288 289 293 296
222 247 132 123 129 148 178 196 153 118 90 67 56 55 48 33 17 1 349 359 12 17 3 332 315 321 337 313 303 299 300 301 302 302 301 303 304 305 304 304 305 307 314 317 321 328 347 14 31 32 26 19 16 12 8 4 360 354 349 345 341 337 333 328 326 324 321 321 320 319 317 313 310 309 308 310 310 312 315 312 306 300 299 295 298 301
143 135 140 138 137 146 168 198 203 186 144 131 101 89 77 39 347 303 230 215 305 305 287 291 284 287 317 313 304 300 303 302 300 298 298 300 305 307 307 306 305 308 314 319 326 331 344 2 12 11 8 2 360 358 357 354 350 347 343 341 338 336 332 327 323 320 318 317 314 310 306 304 304 305 306 306 304 302 300 297 294 294 296 297 298 298
141 144 152 152 151 156 170 178 185 149 17 14 34 51 57 28 323 301 250 182 182 230 257 283 307 331 5 322 312 313 318 317 311 305 303 298 298 305 309 311 310 307 309 307 306 301 292 295 305 319 328 334 337 338 338 336 335 333 331 329 327 325 325 322 319 316 313 310 305 299 297 294 292 292 293 292 290 289 289 290 291 293 295 295 296 295
141 146 153 155 150 161 185 155 102 64 37 36 41 42 33 14 357 4 25 50 71 72 63 54 43 43 51 335 321 328 339 341 338 332 326 310 286 261 266 308 345 356 273 237 243 250 260 270 280 293 306 315 320 320 319 317 316 316 315 313 310 310 310 309 308 306 302 301 298 294 291 287 285 284 285 282 281 282 284 286 289 290 292 292 294 293
145 155 162 157 151 150 160 107 95 84 65 58 58 56 42 29 22 25 32 40 49 54 56 54 54 57 51 331 330 341 354 3 8 8 3 350 325 283 249 207 173 171 196 226 238 251 262 271 278 284 293 299 303 304 303 302 302 302 301 298 296 295 296 296 296 295 295 293 291 289 287 285 282 279 279 277 277 278 280 284 287 289 290 292 292 292
153 161 166 158 155 141 76 75 84 92 94 95 117 98 31 38 49 54 52 47 47 47 46 51 64 72 57 351 350 358 6 10 14 14 11 5 356 341 308 251 232 231 240 247 254 261 266 271 276 279 284 288 291 293 295 295 295 294 292 290 288 286 285 285 285 285 284 284 284 283 283 282 281 278 277 276 276 277 278 284 288 290 292 292 292 291
159 164 166 161 153 130 65 55 66 83 111 121 186 232 263 64 101 114 102 91 81 70 58 58 68 78 68 28 15 15 15 12 11 8 5 6 3 355 334 298 273 262 260 260 263 266 269 271 274 278 281 285 287 290 291 292 292 291 290 289 287 285 282 280 278 278 277 277 277 277 277 277 277 276 275 274 274 275 278 282 286 289 291 291 290 287
156 160 161 157 146 135 120 80 59 74 106 105 83 338 271 201 179 167 152 126 98 79 76 68 71 71 58 31 19 1 331 319 308 294 304 309 344 331 308 297 287 278 273 272 272 275 276 277 279 281 283 285 287 289 291 291 291 290 291 291 290 288 285 281 277 274 273 272 270 269 269 272 272 271 272 272 272 274 277 280 284 287 288 287 286 283
147 145 141 132 123 119 124 123 114 90 90 105 101 64 43 19 312 207 187 161 117 73 66 85 101 305 311 329 336 328 315 309 296 281 268 255 254 259 264 271 275 277 279 281 282 283 284 284 285 285 286 287 288 289 290 290 290 290 291 291 292 291 288 284 278 273 270 268 265 263 264 266 268 269 269 270 272 274 277 279 282 284 284 283 281 279
137 135 129 120 117 118 125 126 128 119 77 126 134 111 74 61 21 339 283 194 113 57 28 346 284 271 275 284 296 305 308 313 309 300 292 286 283 280 277 277 279 282 285 288 290 290 290 291 290 290 290 290 290 290 291 290 290 290 290 290 290 289 287 284 279 273 269 266 264 262 262 262 263 265 266 268 271 274 276 278 280 281 280 278 277 275
137 138 142 141 140 135 135 134 131 137 174 202 181 146 82 73 56 3 337 330 336 347 340 322 298 285 278 276 281 290 297 303 302 297 295 296 297 295 291 289 288 290 291 293 294 294 294 293 293 292 291 291 291 292 291 291 290 290 290 290 288 287 284 281 277 273 270 268 266 264 263 262 263 263 264 267 269 271 274 275 277 277 275 274 272 270
146 151 155 153 149 144 142 153 163 165 173 183 117 81 67 44 22 346 327 314 312 319 318 311 299 287 280 278 279 286 295 299 297 292 291 291 291 290 288 286 285 287 290 289 288 288 289 287 285 285 285 288 290 291 292 292 292 292 292 291 289 287 283 280 277 276 275 273 271 270 268 266 266 265 265 267 268 269 271 272 272 271 270 268 267 266
152 158 159 157 149 146 148 166 169 144 104 68 51 48 44 15 349 328 309 300 301 310 312 306 297 285 274 270 274 284 297 305 305 299 295 289 287 284 281 280 281 282 284 285 286 285 284 281 279 279 282 285 287 287 284 284 286 288 290 290 290 288 284 283 281 280 280 279 278 277 275 272 270 269 268 267 267 267 268 268 267 266 264 263 261 259
152 160 163 159 151 146 144 153 136 107 88 70 47 18 359 341 331 326 315 310 313 317 316 309 301 290 273 260 267 283 302 314 314 306 299 292 287 285 283 282 281 282 284 286 287 286 284 280 278 278 280 281 278 272 270 273 279 283 286 287 287 286 283 281 279 277 277 278 278 278 277 275 273 271 269 268 267 266 265 264 263 261 259 257 255 253
144 157 163 161 156 149 144 130 107 96 90 76 46 6 343 331 333 338 333 326 323 322 321 318 313 304 281 261 270 290 309 319 317 309 302 296 292 289 283 279 277 279 284 288 289 289 287 282 278 277 276 273 268 268 271 278 284 287 284 282 281 281 279 277 273 270 271 274 275 275 275 274 273 271 270 269 268 266 264 262 260 258 256 254 253 253
133 154 168 170 162 151 144 137 117 100 94 72 36 358 339 333 337 338 333 327 324 322 320 322 320 313 296 276 302 320 321 325 322 312 304 297 296 293 283 275 274 279 287 293 295 294 290 284 277 272 267 265 268 274 281 288 292 290 283 276 273 274 274 272 270 267 267 269 271 272 273 272 270 268 264 265 263 261 260 258 256 255 253 253 253 254
137 160 178 186 168 151 144 143 146 155 175 221 284 309 309 311 322 327 322 319 318 319 318 317 311 304 298 294 313 329 327 331 327 317 307 299 297 294 285 277 277 282 290 296 298 295 288 280 273 270 269 272 278 285 292 296 295 291 283 275 270 268 267 267 266 265 265 266 267 269 270 270 270 267 263 260 257 255 255 254 253 253 253 253 254 255
157 172 198 207 175 152 152 162 174 178 182 215 296 317 314 309 312 311 305 303 305 308 310 305 296 287 284 286 293 309 320 325 325 318 307 300 297 294 286 278 279 284 291 296 297 294 286 279 275 276 280 287 294 299 301 300 297 291 285 279 274 269 267 265 264 264 263 264 264 265 265 266 266 266 265 262 260 257 254 254 253 253 252 252 253 254
156 166 178 183 170 170 176 175 167 158 160 164 351 334 318 315 309 301 294 293 293 290 288 283 279 277 276 278 284 295 307 316 318 314 305 299 297 293 286 277 276 283 291 295 297 295 288 283 282 285 290 295 298 300 300 297 293 289 284 280 277 274 271 269 268 267 266 265 264 264 263 262 262 262 262 261 260 259 257 254 253 253 252 252 253 253
136 145 144 140 148 177 175 156 147 150 164 156 117 3 314 310 308 304 303 302 298 291 285 277 275 276 281 283 285 288 294 301 306 306 302 300 297 294 288 277 277 285 292 298 301 300 294 289 287 288 290 293 293 294 294 294 292 290 287 282 279 277 276 275 275 275 275 273 271 268 265 263 261 258 257 257 257 257 256 255 255 254 254 253 254 255
98 105 118 125 136 145 133 140 148 169 193 166 114 49 317 318 318 316 314 312 305 298 291 285 282 282 284 284 284 285 286 286 285 288 297 298 295 294 294 285 285 290 293 299 302 302 297 293 291 291 292 292 291 292 294 296 297 297 293 287 282 280 280 281 281 281 279 277 275 273 270 267 264 260 257 256 256 256 255 255 255 255 256 255 256 256
90 90 103 123 149 160 160 154 163 185 200 155 131 222 257 277 298 307 307 305 301 295 290 286 285 285 285 285 287 287 284 273 267 270 284 288 290 294 298 296 294 294 292 296 300 301 299 297 295 296 296 292 290 291 296 303 307 306 299 291 284 279 276 275 274 273 273 274 273 272 270 269 266 263 260 257 256 255 255 255 254 254 254 254 254 254
102 102 109 140 177 184 174 163 170 181 185 186 216 252 267 277 281 285 288 291 290 288 286 286 286 287 287 290 293 289 276 260 257 263 272 278 285 291 297 299 297 295 292 295 299 302 302 301 300 300 299 292 287 291 300 311 317 315 303 288 275 269 265 264 262 260 262 266 267 267 266 265 262 258 256 254 253 253 252 251 251 251 250 250 249 249
145 148 148 189 206 201 190 187 198 209 222 242 271 298 308 305 296 289 290 288 286 283 282 282 283 285 289 293 295 287 266 258 259 262 264 275 284 289 294 296 297 295 294 296 299 303 305 303 302 301 297 290 287 293 306 320 328 328 315 293 276 268 265 264 262 260 259 257 256 255 254 254 250 247 247 247 247 247 246 247 247 247 247 247 247 247
220 217 216 226 227 221 215 214 221 232 242 262 288 306 310 304 298 294 292 287 283 279 278 278 280 284 291 294 295 287 268 267 270 270 262 270 281 288 292 295 296 296 296 299 303 305 306 301 300 298 292 285 285 294 309 324 334 338 333 318 301 289 283 280 276 273 269 264 259 255 251 248 245 243 243 244 245 245 245 245 246 247 247 249 250 251
249 244 240 241 241 239 234 232 235 241 247 254 263 274 282 288 291 291 286 282 279 278 277 279 282 287 290 290 287 283 277 275 276 273 264 264 275 285 291 296 299 300 301 302 304 305 303 298 295 293 286 277 278 291 308 321 330 334 335 330 323 314 306 299 294 289 283 277 271 265 260 256 252 248 246 244 245 246 247 248 249 249 251 253 255 256
261 256 254 253 254 255 255 254 254 253 253 253 257 263 270 278 280 279 275 275 277 278 277 276 279 283 286 284 284 283 282 278 271 263 256 259 268 279 287 296 300 303 306 306 307 307 305 298 292 286 276 272 281 296 310 319 325 327 326 324 319 313 307 303 300 296 291 286 280 273 268 263 259 255 252 249 248 248 248 249 250 252 253 254 256 258
276 274 272 269 269 269 269 267 265 262 260 260 262 264 267 269 268 266 267 270 273 274 272 270 270 272 277 280 283 284 280 274 261 247 243 252 267 276 287 295 301 307 313 314 314 313 309 299 285 271 263 274 291 305 315 318 318 317 314 310 305 301 297 295 295 295 294 292 286 279 273 267 263 259 256 253 251 250 249 250 251 252 254 254 255 257
284 281 278 276 276 275 273 270 267 264 263 263 265 266 267 267 264 261 261 262 264 264 264 264 264 267 271 278 283 282 274 263 246 239 244 254 269 278 289 295 300 308 318 324 323 317 311 301 276 259 270 289 303 313 316 314 309 305 300 297 295 293 293 292 293 296 299 299 295 288 280 273 267 263 259 256 253 251 250 250 251 252 253 254 255 256
270 267 265 268 270 270 268 266 265 265 265 267 268 269 269 268 265 261 258 254 252 253 255 257 259 260 263 268 274 276 268 255 246 249 256 260 267 275 287 294 298 303 314 323 324 318 315 308 292 279 294 305 309 309 307 304 300 298 296 294 294 294 294 294 297 300 302 303 301 295 288 281 275 269 264 260 256 253 251 250 250 251 253 254 255 257
271 268 267 268 268 267 266 266 266 268 270 271 271 271 271 269 266 261 255 249 245 245 246 249 252 253 253 252 252 257 267 273 271 269 267 262 262 270 280 289 295 299 302 301 296 290 293 299 299 300 303 304 303 302 299 298 296 295 294 293 292 293 295 297 299 301 302 301 298 294 289 284 280 276 271 267 263 258 254 251 249 249 251 253 255 257
279 278 276 274 273 271 269 268 268 270 271 272 272 272 271 269 266 261 254 248 244 240 239 241 245 248 249 248 249 253 261 270 275 276 272 262 258 266 278 285 291 294 294 287 277 271 271 279 290 297 300 300 300 299 298 297 296 294 292 290 289 290 294 298 300 301 300 298 294 291 287 284 281 279 276 273 269 264 260 256 252 250 249 251 253 256
281 279 278 276 274 271 268 266 266 267 269 270 270 270 269 268 266 262 258 252 246 241 236 235 237 241 246 249 250 251 255 260 263 264 267 260 257 264 277 281 284 287 289 285 279 274 273 277 286 294 299 301 300 299 299 298 297 293 289 288 289 293 297 302 304 304 302 299 297 294 292 289 286 283 280 277 274 271 266 261 256 252 250 250 251 253
281 279 277 275 272 269 266 263 262 263 264 265 265 264 264 264 263 262 260 256 251 245 238 234 233 235 240 246 250 250 248 249 254 260 265 259 259 266 275 274 275 280 283 283 283 283 283 284 288 294 299 302 302 301 300 300 298 295 292 292 295 299 303 305 304 303 301 299 297 296 295 294 290 286 282 279 277 274 271 267 262 257 253 251 250 251
281 279 277 275 271 268 264 262 262 262 263 263 262 261 259 259 259 257 256 255 253 248 242 237 234 233 234 238 243 244 243 243 251 263 270 267 265 267 270 270 271 274 278 281 282 284 287 289 291 293 296 298 300 301 303 304 302 299 297 298 300 301 301 300 299 298 298 297 296 294 294 293 290 287 283 280 277 274 272 269 267 263 258 254 251 250
282 280 278 275 271 268 265 263 263 264 264 263 261 258 258 257 255 254 252 252 251 248 244 241 238 237 237 238 240 241 240 239 243 251 259 262 262 262 263 265 266 268 272 277 280 283 286 289 292 293 292 290 292 297 303 307 306 303 301 300 300 299 298 297 297 298 297 296 295 293 292 290 288 286 283 282 279 276 274 271 270 268 265 260 256 253
280 279 279 277 274 270 268 266 265 265 264 262 260 258 256 255 253 252 251 252 253 251 248 245 244 243 243 244 244 244 244 243 244 246 250 254 256 257 259 262 264 264 266 269 273 277 281 285 288 290 290 288 288 293 300 305 307 306 303 302 300 299 298 299 300 300 298 295 293 292 291 288 287 286 285 285 284 281 278 276 275 273 271 267 263 259
280 280 280 279 276 274 271 269 267 266 265 262 261 259 258 257 255 254 253 254 255 256 255 253 252 251 250 250 251 252 252 252 252 253 253 255 257 258 259 260 262 263 263 263 265 268 271 274 276 281 287 290 293 295 297 301 303 304 303 304 303 301 300 301 301 299 295 293 291 290 290 288 287 286 286 285 284 282 280 279 277 275 273 270 268 266
282 282 281 280 278 275 271 269 268 268 267 265 265 264 264 264 263 261 259 257 256 258 260 261 261 260 260 259 259 260 261 263 264 263 262 261 261 260 260 259 259 260 261 260 260 260 261 264 268 272 277 284 289 293 296 297 297 299 302 303 303 301 301 300 297 295 293 293 293 292 292 290 288 286 284 283 282 280 279 278 276 274 271 268 268 268
284 282 282 281 280 277 273 270 270 271 271 270 270 269 268 266 266 265 264 260 258 258 260 263 265 266 267 267 267 268 270 272 273 273 272 269 267 265 264 260 257 255 255 256 255 255 256 259 264 269 272 277 282 287 289 290 292 294 296 296 295 296 298 297 296 296 297 298 298 296 294 291 289 286 284 283 281 280 279 277 275 273 270 267 266 267
280 280 279 281 281 281 279 276 276 275 276 274 272 268 265 262 260 259 259 257 256 254 255 257 259 261 264 267 269 272 274 275 277 277 277 275 273 270 267 263 257 252 248 249 251 253 253 255 259 263 268 273 278 282 285 286 288 289 290 289 292 296 298 297 296 298 298 298 296 293 291 289 287 286 285 284 282 281 279 276 274 272 270 269 268 267
275 275 275 276 276 276 275 277 278 278 277 274 269 265 262 259 256 254 254 254 253 252 251 250 253 257 262 266 269 270 272 273 274 275 274 273 272 270 267 264 257 249 243 244 248 252 254 254 255 258 262 267 271 276 280 283 286 287 286 286 290 294 295 295 296 297 295 293 290 288 288 287 286 286 286 285 284 282 279 276 274 273 272 271 271 270
270 270 270 270 273 275 279 280 279 278 274 270 266 263 261 259 255 252 251 252 252 251 250 251 255 260 264 268 271 273 274 271 268 265 265 268 269 269 267 264 257 248 241 239 243 249 254 255 255 257 259 262 266 269 274 278 282 283 284 284 284 282 281 286 291 294 293 290 289 288 287 288 288 288 287 286 284 282 280 277 275 274 274 274 272 271
265 266 267 270 275 278 279 278 277 274 270 266 264 263 260 258 254 251 249 250 250 250 249 250 255 261 264 266 269 273 275 270 260 254 254 258 262 265 267 265 259 250 242 239 239 243 248 253 256 259 260 262 263 265 269 273 277 280 281 282 281 278 277 280 284 287 287 287 287 287 288 289 290 289 288 286 285 282 280 279 278 277 276 274 272 270
261 263 266 271 274 274 273 273 273 271 268 265 263 261 259 256 253 249 247 247 248 248 248 249 251 255 260 265 268 270 272 268 260 252 246 245 249 256 264 265 262 256 248 244 243 244 245 248 253 258 262 264 264 264 264 268 272 275 278 280 280 280 280 280 280 280 281 282 284 285 287 288 287 286 285 285 285 283 282 280 279 278 277 274 271 269
256 260 263 267 269 268 269 270 270 267 265 263 262 260 257 253 250 247 246 245 245 246 248 249 249 251 255 260 263 264 264 263 259 251 244 239 240 245 253 258 261 261 257 253 251 250 249 250 252 254 257 261 264 265 265 264 266 269 273 277 279 279 279 279 279 278 279 279 280 282 285 285 284 283 282 284 284 284 283 281 279 278 276 274 272 269
254 256 259 261 263 263 264 264 264 263 262 261 261 260 256 251 248 246 245 244 244 245 246 247 248 250 253 255 256 256 255 256 255 251 247 244 241 241 244 249 253 257 258 259 258 256 256 257 256 254 253 253 257 262 264 264 263 264 267 271 274 275 276 277 278 279 279 278 278 279 280 280 279 278 280 282 283 283 282 281 280 278 275 273 271 269
253 254 256 257 258 258 259 259 259 259 259 260 260 260 257 253 248 246 244 244 244 243 244 245 247 249 251 252 252 252 252 252 252 251 249 248 246 243 241 242 244 248 253 257 259 261 262 263 261 256 252 249 250 254 259 261 261 262 263 266 268 270 273 275 277 278 278 278 279 279 279 277 274 274 276 277 279 280 281 282 281 280 277 274 272 271
251 252 253 252 252 253 254 254 254 255 256 258 260 261 260 257 252 248 245 243 242 242 242 243 246 248 250 251 251 250 249 250 250 249 248 247 246 244 242 240 240 243 249 255 259 262 265 267 265 259 253 249 247 248 250 254 257 259 260 261 262 264 267 271 274 277 278 278 278 279 280 277 275 273 271 271 273 277 279 280 281 280 278 276 275 273
248 249 249 248 248 249 249 250 250 251 253 255 257 259 260 259 255 251 246 243 242 241 242 243 245 246 249 251 251 250 248 248 248 248 247 246 245 242 240 238 239 242 249 257 262 265 268 271 271 267 261 252 247 245 246 246 248 252 255 257 258 260 263 268 273 276 278 277 276 277 276 275 273 270 266 266 270 275 278 279 279 280 279 278 277 275